THOR ABLESTAR DEB, 122

Orbit data source: Space-Track

THOR ABLESTAR DEB, 122 is space debris in LEO originally from a launch on Thu, 29 Jun 1961 UTC launched from the Air Force Eastern Test Range (AFETR). Debris objects in space refer to the collection of defunct objects orbiting the Earth. Examples of debris include non-operational satellites, rocket bodies, and fragments generated from explosions, collisions, or faulty payload assembly.

Loading next visibility...
Identifier
122, 1961-015G
Orbit
LEO
Country
Flag of USUS
Related business
Manufacturer
Unknown
Mission
Spacecraft
Bus & Motor
Unknown
Mass
Unknown
Launch date (UTC)
1961-06-29 (65 years ago)
Launch vehicle
Unknown
Launch site
Air Force Eastern Test Range (AFETR)
Object type
Payload
Rocket body
Debris
Shape & HBR
Unknown shape, 0.5 m
Radar Cross Section
Medium (>0.1 m² and <1 m²)

Expand to show TLE details & history
Last TLE update: 18 hours ago

TLE from 18 hours ago
0 THOR ABLESTAR DEB
1 00122U 61015G   26070.45981873  .00012363  00000-0  99729-3 0  9992
2 00122  66.7401 108.6405 0045894 280.8864  78.7107 14.99293018379613
Epoch: 2026-03-11T11:02Z
TLE epoch observation values (Epoch: 2026-03-11T11:02:08.338Z)
Latitude
-0.00001°
Longitude
133.98201°
Altitude
565.156 km
Speed
7.582 km/s
True Right ascension
07h 14m 33s
True Declination
0° 00' 00"
Sunlit
Object was in full shadow at epoch
Visualization orbit readout
Latitude
Unknown
Longitude
Unknown
Altitude
Unknown
Speed
Unknown
Apparent Right ascension
Unknown
Apparent Declination
Unknown
Sunlit
N/A
Visualization observer readout
Local Sidereal Time
09:12:05
Azimuth
Unknown
Elevation
Unknown
Doppler factor
Unknown
Orbital elements
Apogee altitude
599.273 km
Perigee altitude
535.521 km
Semi-major axis
6,945.534 km
Eccentricity
0.00459
Inclination
66.7401°
RAAN
108.6405°
Arg. of periapsis
280.8864°
True anomaly
79.227°
Mean anomaly
78.7107°
Eccentric anomaly
78.96879°
Mean motion
3.7496 °/min
Orbital period
96.01 mins
BSTAR
0.00099729
Loading maneuver chart data...
Computing Atmospheric mass density...

Documentation

Showing up to 5 results
|